1497279601.02,29886,22.75,74060.0,8.75,0.47,3.67,0,*4B
1497279602.23,29887,22.75,74062.3,8.75,0.63,3.85,0,*40
1497279603.41,29888,22.75,74060.8,8.73,0.63,3.85,0,*49
1497279604.61,29889,22.75,74062.5,8.73,0.75,3.93,0,*48
1497279605.78,29890,22.75,74060.5,8.73,0.97,4.07,0,*46
1497279606.98,29891,22.75,74062.3,8.73,1.05,3.97,0,*73
1497279608.16,29892,22.75,74066.3,8.73,0.97,3.93,0,*4E
1497279609.38,29893,22.75,74060.8,8.71,0.95,3.89,0,*44
1497279610.64,29894,22.75,74066.0,8.71,1.17,4.01,0,*7F
1497279611.86,29895,22.75,74062.8,8.71,1.43,4.11,0,*7E
1497279613.1,29896,22.75,74062.8,8.71,1.29,3.93,0,*7C
1497279614.35,29897,22.75,74060.5,8.71,1.55,4.05,0,*7E
1497279615.56,29898,22.75,74060.0,8.71,1.79,4.23,0,*7B
1497279616.79,29899,22.75,74060.8,8.71,1.55,3.93,0,*78
1497279618.02,29900,22.75,74058.5,8.71,1.97,4.23,0,*7B
1497279619.25,29901,22.75,74054.3,8.67,2.31,4.31,0,*71
1497279620.45,29902,22.75,74058.0,8.71,2.27,4.27,0,*75
1497279621.68,29903,22.75,74054.0,8.71,2.59,4.41,0,*7D
1497279622.87,29904,22.75,74054.0,8.69,2.65,4.45,0,*78
1497279624.06,29905,22.75,74054.0,8.69,2.65,4.33,0,*78
1497279625.24,29906,22.75,74052.3,8.69,2.65,4.37,0,*7F
1497279626.45,29907,22.75,74058.5,8.69,2.69,4.33,0,*76
1497279627.68,29908,22.75,74058.3,8.71,2.85,4.41,0,*77
1497279628.88,29909,22.75,74062.8,8.71,2.95,4.53,0,*74
1497279630.08,29910,22.75,74060.0,8.71,2.95,4.49,0,*77
1497279631.29,29911,22.75,74058.3,8.71,2.99,4.37,0,*73
1497279632.49,29912,22.75,74060.0,8.71,2.99,4.41,0,*71
1497279633.7,29913,22.75,74060.0,8.73,3.23,4.45,0,*76
1497279634.93,29914,22.75,74060.5,8.71,3.11,4.45,0,*72
1497279636.15,29915,22.75,74066.8,8.71,3.19,4.41,0,*7F
1497279637.39,29916,22.75,74056.8,8.71,3.11,4.37,0,*75
1497279638.59,29917,22.75,74060.8,8.71,2.99,4.27,0,*74
1497279639.81,29918,22.75,74062.5,8.71,3.07,4.27,0,*7D
1497279641.04,29919,22.75,74060.0,8.71,3.19,4.49,0,*7B
1497279642.21,29920,22.75,74066.5,8.73,3.29,4.49,0,*70
1497279643.41,29921,22.75,74062.5,8.73,3.23,4.45,0,*77
1497279644.62,29922,22.75,74066.3,8.71,3.29,4.41,0,*78
1497279645.82,29923,22.75,74064.0,8.71,3.29,4.49,0,*71
1497279647.02,29924,22.75,74066.3,8.73,3.33,4.57,0,*70
1497279648.27,29925,22.75,74062.3,8.75,3.37,4.59,0,*7D
1497279649.47,29926,22.75,74060.3,8.73,3.33,4.45,0,*71
1497279650.68,29927,22.75,74062.3,8.73,3.15,4.41,0,*70
1497279651.89,29928,22.75,74062.0,8.73,3.23,4.41,0,*7A
1497279653.12,29929,22.75,74064.3,8.71,3.11,4.37,0,*79
1497279654.33,29930,22.75,74066.0,8.73,3.15,4.37,0,*77
1497279655.5,29931,22.75,74068.0,8.73,2.99,4.27,0,*72
1497279656.67,29932,22.75,74068.3,8.73,2.99,4.27,0,*71
1497279657.87,29933,22.75,74066.0,8.75,2.95,4.23,0,*7E
1497279659.09,29934,22.75,74064.3,8.73,2.73,3.97,0,*7F
1497279660.28,29935,22.75,74066.8,8.73,2.89,4.27,0,*77
1497279661.51,29936,22.75,74064.8,8.73,2.89,4.31,0,*73
1497279662.76,29937,22.75,74066.5,8.71,2.81,4.05,0,*7F
1497279663.99,29938,22.75,74070.5,8.71,2.61,4.05,0,*7E
1497279665.22,29939,22.75,74064.0,8.71,2.81,4.23,0,*75
1497279666.44,29940,22.75,74064.3,8.71,2.81,4.11,0,*7A
1497279667.67,29941,22.75,74064.0,8.71,2.69,3.93,0,*70
1497279668.91,29942,22.75,74062.5,8.71,2.73,4.01,0,*74
1497279670.11,29943,22.75,74060.8,8.71,2.95,4.11,0,*7C
1497279671.31,29944,22.75,74062.0,8.69,2.81,3.85,0,*7D
1497279672.52,29945,22.75,74060.8,8.69,2.81,3.85,0,*7C
1497279673.75,29946,22.75,74060.5,8.67,3.07,4.07,0,*73
1497279674.96,29947,22.75,74058.0,8.67,2.95,3.89,0,*79
1497279676.17,29948,22.75,74056.3,8.67,3.29,4.07,0,*71
1497279677.35,29949,22.75,74058.8,8.69,3.29,4.19,0,*71
1497279678.58,29950,22.75,74056.5,8.67,3.63,4.31,0,*73
1497279679.79,29951,22.75,74056.5,8.69,3.75,4.37,0,*7D
1497279681.01,29952,22.75,74058.0,8.69,3.75,4.33,0,*7A
1497279682.25,29953,22.75,74056.8,8.67,3.75,4.33,0,*75
1497279683.46,29954,22.75,74058.8,8.69,3.67,4.23,0,*7E
1497279684.7,29955,22.75,74062.8,8.67,3.67,4.37,0,*74
1497279685.93,29956,22.75,74064.3,8.67,3.67,4.23,0,*72
1497279687.16,29957,22.75,74066.5,8.69,3.19,3.75,0,*70
1497279688.41,29958,22.75,74066.0,8.67,2.85,3.53,0,*71
1497279689.64,29959,22.75,74058.8,8.67,3.07,3.63,0,*78
1497279690.9,29960,22.75,74056.3,8.67,3.15,3.67,0,*75
1497279692.16,29961,22.75,74056.0,8.67,2.81,3.41,0,*7C
1497279693.42,29962,22.75,74060.8,8.67,3.15,3.67,0,*77
1497279694.65,29963,22.75,74064.8,8.67,3.25,3.75,0,*76
1497279695.83,29964,22.75,74060.8,8.65,2.91,3.59,0,*73
1497279697.09,29965,22.75,74062.3,8.63,3.11,3.71,0,*77
1497279698.32,29966,22.75,74056.8,8.63,3.03,3.59,0,*7D
1497279699.58,29967,22.75,74058.8,8.63,3.03,3.75,0,*72
1497279700.84,29968,22.75,74054.5,8.63,3.11,3.75,0,*7E
1497279702.07,29969,22.75,74048.5,8.63,3.03,3.63,0,*7B
1497279703.3,29970,22.75,74052.8,8.59,2.89,3.55,0,*7C
1497279704.52,29971,22.75,74062.5,8.59,2.95,3.67,0,*71
1497279705.73,29972,22.75,74056.5,8.57,2.95,3.67,0,*7C
1497279706.98,29973,22.75,74050.0,8.63,3.23,3.75,0,*75
1497279708.19,29974,22.75,74052.0,8.65,3.03,3.59,0,*78
1497279709.43,29975,22.75,74048.0,8.59,3.07,3.59,0,*72
1497279710.64,29976,22.75,74042.5,8.57,2.91,3.41,0,*78
1497279711.87,29977,22.75,74040.8,8.57,3.03,3.45,0,*77
1497279713.11,29978,22.75,74050.0,8.57,3.07,3.45,0,*7C
1497279714.29,29979,22.75,74050.5,8.57,2.91,3.29,0,*79
1497279715.49,29980,22.75,74044.5,8.55,2.95,3.29,0,*79
1497279716.71,29981,22.75,74050.5,8.55,3.19,3.55,0,*76
1497279717.91,29982,22.75,74048.0,8.55,3.25,3.63,0,*7F
1497279719.17,29983,22.75,74052.3,8.55,3.67,4.01,0,*7B
1497279720.39,29984,22.75,74052.3,8.55,3.53,3.85,0,*70
1497279721.61,29985,22.75,74054.5,8.53,3.53,3.97,0,*74
1497279722.81,29986,22.75,74054.8,8.55,3.55,4.07,0,*79
1497279723.99,29987,22.75,74056.3,8.57,3.29,3.89,0,*70
1497279725.22,29988,22.75,74060.0,8.57,3.37,4.01,0,*77
1497279726.43,29989,22.75,74056.5,8.55,3.29,4.07,0,*7D
1497279727.62,29990,22.75,74056.8,8.55,3.29,4.19,0,*7A
1497279728.8,29991,22.75,74054.0,8.57,3.29,4.11,0,*71
1497279730.03,29992,22.75,74052.8,8.57,3.07,4.01,0,*7F
1497279731.23,29993,22.75,74054.5,8.57,3.19,4.19,0,*78
1497279732.43,29994,22.75,74056.3,8.57,3.15,4.27,0,*7E
1497279733.66,29995,22.75,74058.8,8.59,2.89,3.93,0,*7D
1497279734.87,29996,22.75,74056.3,8.59,2.61,3.81,0,*7B
1497279736.08,29997,22.75,74060.8,8.59,2.61,3.81,0,*7A
1497279737.33,29998,22.75,74058.3,8.59,2.47,3.67,0,*79
1497279738.53,29999,22.75,74056.3,8.57,2.21,3.55,0,*77
1497279739.72,30000,22.75,74056.8,8.57,2.21,3.55,0,*76
1497279740.92,30001,22.75,74056.5,8.57,2.09,3.63,0,*78
1497279742.15,30002,22.75,74060.0,8.57,2.09,3.67,0,*7F
1497279743.36,30003,22.75,74058.3,8.57,1.75,3.37,0,*73
1497279744.61,30004,22.75,74054.3,8.59,1.67,3.45,0,*7C
1497279745.81,30005,22.75,74054.8,8.57,1.51,3.25,0,*70
1497279747.02,30006,22.75,74052.0,8.57,1.71,3.55,0,*76
1497279748.22,30007,22.75,74054.0,8.57,1.83,3.75,0,*78
1497279749.45,30008,22.75,74058.0,8.57,1.97,3.97,0,*7E
1497279750.66,30009,22.75,74056.8,8.57,1.85,3.89,0,*73
1497279751.84,30010,22.75,74060.8,8.57,1.75,3.85,0,*78
1497279753.04,30011,22.75,74060.0,8.57,1.63,3.85,0,*7E
1497279754.29,30012,22.75,74058.8,8.59,1.43,3.67,0,*7D
1497279755.55,30013,22.75,74056.3,8.59,1.33,3.67,0,*7B
1497279756.81,30014,22.75,74052.3,8.59,1.33,3.67,0,*7C
1497279758.02,30015,22.75,74052.0,8.57,1.17,3.55,0,*74
1497279759.25,30016,22.75,74052.8,8.55,1.17,3.63,0,*70
1497279760.48,30017,22.75,74054.8,8.55,1.09,3.55,0,*7B
1497279761.68,30018,22.75,74052.8,8.57,1.09,3.63,0,*73
1497279762.89,30019,22.75,74046.3,8.57,1.09,3.63,0,*72
1497279764.07,30020,22.75,74050.5,8.57,1.01,3.55,0,*75
1497279765.25,30021,22.75,74052.5,8.57,1.01,3.55,0,*74
1497279766.47,30022,22.75,74052.0,8.57,0.91,3.53,0,*49
1497279767.71,30023,22.75,74056.3,8.57,1.13,3.75,0,*77
1497279768.97,30024,22.75,74056.3,8.55,1.09,3.79,0,*75
1497279770.16,30025,22.75,74058.0,8.55,0.97,3.55,0,*4C
1497279771.37,30026,22.75,74060.0,8.55,1.01,3.63,0,*74
1497279772.62,30027,22.75,74056.8,8.55,0.87,3.45,0,*4E
1497279773.87,30028,22.75,74052.0,8.55,0.79,3.41,0,*44
1497279775.13,30029,22.75,74052.5,8.55,0.87,3.41,0,*44
1497279776.39,30030,22.75,74056.5,8.55,0.91,3.41,0,*4B
1497279777.62,30031,22.75,74058.0,8.53,0.83,3.41,0,*4F
1497279778.87,30032,22.75,74058.0,8.55,0.87,3.37,0,*4F
1497279780.11,30033,22.75,74056.8,8.53,0.87,3.33,0,*4C
1497279781.33,30034,22.75,74056.8,8.53,0.87,3.37,0,*4F
1497279782.57,30035,22.75,74058.5,8.51,0.97,3.41,0,*4C
1497279783.78,30036,22.75,74054.3,8.53,0.97,3.41,0,*4D
1497279785.01,30037,22.75,74058.0,8.51,1.05,3.49,0,*7C
1497279786.27,30038,22.75,74056.5,8.51,1.09,3.49,0,*7F
1497279787.53,30039,22.75,74058.3,8.51,1.21,3.49,0,*74
1497279788.79,30040,22.75,74060.8,8.51,1.21,3.53,0,*71
1497279790.04,30041,22.75,74062.3,8.51,1.43,3.71,0,*74
1497279791.29,30042,22.75,74062.3,8.51,1.59,3.71,0,*7C
1497279792.54,30043,22.75,74060.0,8.51,1.59,3.75,0,*79
1497279793.79,30044,22.75,74056.8,8.51,1.59,3.71,0,*7A
1497279795.02,30045,22.75,74056.0,8.51,1.67,3.63,0,*75
1497279796.24,30046,22.75,74056.0,8.51,1.67,3.63,0,*76
1497279797.46,30047,22.75,74058.8,8.51,1.59,3.59,0,*73
1497279798.66,30048,22.75,74058.3,8.49,1.63,3.55,0,*70
1497279799.92,30049,22.75,74064.3,8.51,1.85,3.71,0,*76
1497279801.1,30050,22.75,74062.5,8.49,1.79,3.59,0,*7E
1497279802.32,30051,22.75,74060.3,8.49,1.93,3.67,0,*76
1497279803.58,30052,22.69,74060.5,8.51,2.05,3.75,0,*73
1497279804.78,30053,22.75,74062.0,8.49,1.93,3.59,0,*79
1497279806.01,30054,22.75,74058.0,8.49,2.17,3.67,0,*7C
1497279807.24,30055,22.75,74058.0,8.47,2.43,3.85,0,*7E
1497279808.45,30056,22.75,74056.8,8.49,2.65,4.05,0,*78
1497279809.63,30057,22.69,74054.8,8.49,2.61,3.93,0,*75
1497279810.84,30058,22.75,74054.8,8.49,2.59,3.81,0,*72
1497279812.07,30059,22.75,74058.0,8.51,2.61,3.75,0,*7A
1497279813.27,30060,22.75,74062.0,8.49,2.61,3.79,0,*75
1497279814.49,30061,22.69,74054.3,8.51,2.77,3.85,0,*79
1497279815.72,30062,22.75,74054.0,8.49,2.85,3.79,0,*7D
1497279816.92,30063,22.75,74052.3,8.49,2.89,3.89,0,*7F
1497279818.13,30064,22.75,74050.5,8.49,3.07,3.93,0,*74
1497279819.35,30065,22.75,74054.0,8.49,3.07,3.93,0,*75
1497279820.56,30066,22.75,74054.8,8.49,3.07,3.89,0,*7D
1497279821.77,30067,22.75,74048.5,8.49,3.07,3.81,0,*74
1497279822.98,30068,22.75,74048.8,8.49,3.07,3.81,0,*7B
1497279824.21,30069,22.75,74044.8,8.49,3.19,3.79,0,*72
1497279825.43,30070,22.75,74048.5,8.49,3.19,3.71,0,*72
1497279826.64,30071,22.75,74052.3,8.49,2.95,3.49,0,*7D
1497279827.85,30072,22.75,74052.5,8.49,3.07,3.59,0,*75
1497279829.07,30073,22.75,74050.8,8.49,3.19,3.67,0,*76
1497279830.3,30074,22.75,74052.0,8.49,3.19,3.71,0,*76
1497279831.52,30075,22.75,74054.0,8.49,3.19,3.71,0,*77
1497279832.75,30076,22.75,74054.5,8.47,3.29,3.79,0,*71
1497279833.99,30077,22.75,74054.0,8.47,3.45,3.89,0,*75
1497279835.19,30078,22.75,74052.8,8.47,3.55,3.89,0,*7B
1497279836.39,30079,22.75,74058.3,8.49,3.71,4.11,0,*74
1497279837.59,30080,22.75,74054.0,8.49,3.71,4.15,0,*76
1497279838.8,30081,22.75,74058.3,8.49,3.79,4.19,0,*73
1497279840.03,30082,22.75,74056.0,8.51,3.75,4.15,0,*79
1497279841.26,30083,22.75,74054.3,8.51,3.71,4.07,0,*7F
1497279842.46,30084,22.75,74056.3,8.51,3.59,3.93,0,*78
1497279843.72,30085,22.75,74054.8,8.51,3.75,4.05,0,*7F
1497279844.9,30086,22.75,74054.3,8.49,3.59,3.93,0,*73
1497279846.1,30087,22.75,74050.5,8.49,3.49,3.81,0,*70
1497279847.33,30088,22.75,74052.3,8.49,3.41,3.75,0,*7C
1497279848.51,30089,22.75,74048.5,8.49,3.55,3.89,0,*7B
1497279849.69,30090,22.75,74048.3,8.49,3.59,3.93,0,*74
1497279850.87,30091,22.75,74056.8,8.49,3.59,3.93,0,*75
1497279852.05,30092,22.75,74048.5,8.49,3.81,4.15,0,*7A
1497279853.26,30093,22.75,74056.0,8.49,3.93,4.31,0,*7E
1497279854.51,30094,22.75,74054.0,8.51,3.97,4.31,0,*74
1497279855.75,30095,22.75,74054.0,8.51,4.05,4.41,0,*7E
1497279856.97,30096,22.75,74054.5,8.51,3.97,4.33,0,*74
1497279858.21,30097,22.75,74058.8,8.49,4.05,4.31,0,*72
1497279859.42,30098,22.75,74058.3,8.51,4.07,4.45,0,*75
1497279860.62,30099,22.75,74058.0,8.51,4.07,4.45,0,*74
1497279861.85,30100,22.75,74056.3,8.55,4.33,4.59,0,*7B
1497279863.06,30101,22.75,74058.5,8.53,4.41,4.67,0,*74
1497279864.3,30102,22.75,74058.5,8.55,4.37,4.71,0,*77
1497279865.53,30103,22.75,74054.8,8.53,4.31,4.63,0,*75
1497279866.74,30104,22.75,74058.0,8.55,4.11,4.45,0,*72
1497279867.95,30105,22.75,74056.5,8.55,4.07,4.33,0,*75
1497279869.15,30106,22.69,74056.3,8.55,4.11,4.49,0,*7C
1497279870.33,30107,22.75,74056.5,8.57,4.23,4.49,0,*7E
1497279871.53,30108,22.75,74058.5,8.57,4.33,4.59,0,*71
1497279872.77,30109,22.75,74058.0,8.59,4.37,4.63,0,*73
1497279873.98,30110,22.75,74062.3,8.57,4.37,4.59,0,*7C
1497279875.21,30111,22.75,74062.0,8.59,4.41,4.71,0,*78
1497279876.44,30112,22.75,74058.3,8.59,4.27,4.59,0,*71
1497279877.65,30113,22.75,74060.8,8.59,4.11,4.49,0,*74
1497279878.88,30114,22.75,74060.5,8.59,4.05,4.41,0,*7E
1497279880.09,30115,22.75,74056.8,8.59,4.11,4.53,0,*79
1497279881.3,30116,22.75,74060.5,8.59,4.11,4.53,0,*7A
1497279882.51,30117,22.75,74058.5,8.63,4.19,4.57,0,*7E
1497279883.72,30118,22.75,74056.8,8.63,4.15,4.57,0,*7D
1497279884.95,30119,22.75,74056.8,8.63,4.19,4.63,0,*77
1497279886.19,30120,22.75,74062.3,8.63,4.15,4.63,0,*71
1497279887.4,30121,22.75,74056.3,8.65,4.15,4.63,0,*76
1497279888.61,30122,22.75,74062.0,8.65,4.15,4.63,0,*75
1497279889.85,30123,22.75,74062.3,8.65,4.31,4.67,0,*76
1497279891.06,30124,22.69,74056.8,8.65,4.19,4.63,0,*7F
1497279892.27,30125,22.75,74060.0,8.65,4.05,4.53,0,*70
1497279893.46,30126,22.75,74060.5,8.69,4.07,4.57,0,*79
1497279894.67,30127,22.75,74060.5,8.67,4.11,4.57,0,*71
1497279895.9,30128,22.75,74056.5,8.67,4.23,4.67,0,*7C
1497279897.14,30129,22.75,74058.8,8.67,4.23,4.71,0,*7A
1497279898.37,30130,22.75,74060.5,8.67,4.33,4.71,0,*73
1497279899.64,30131,22.75,74062.0,8.67,4.31,4.79,0,*78
1497279900.87,30132,22.75,74060.0,8.67,4.11,4.59,0,*7B
1497279902.08,30133,22.75,74060.3,8.69,3.97,4.37,0,*75
1497279903.28,30134,22.75,74060.0,8.69,4.01,4.45,0,*7F
1497279904.47,30135,22.69,74058.8,8.69,4.11,4.57,0,*7C
1497279905.67,30136,22.75,74058.3,8.69,4.01,4.45,0,*7D
1497279906.9,30137,22.75,74056.0,8.67,4.01,4.57,0,*71
1497279908.13,30138,22.75,74058.3,8.71,4.15,4.59,0,*72
1497279909.33,30139,22.75,74058.0,8.69,4.01,4.49,0,*7E
1497279910.56,30140,22.75,74056.8,8.69,4.01,4.59,0,*71
1497279911.77,30141,22.75,74060.0,8.69,4.07,4.59,0,*76
1497279912.97,30142,22.69,74054.0,8.69,4.19,4.59,0,*7A
1497279914.2,30143,22.75,74056.0,8.71,4.27,4.63,0,*76
1497279915.41,30144,22.75,74058.5,8.71,4.11,4.53,0,*77
1497279916.64,30145,22.75,74056.3,8.71,4.23,4.63,0,*74
1497279917.87,30146,22.75,74052.8,8.71,4.23,4.63,0,*77
1497279919.11,30147,22.75,74056.3,8.71,4.37,4.71,0,*70
1497279920.31,30148,22.75,74056.0,8.73,4.41,4.75,0,*78
1497279921.52,30149,22.75,74058.5,8.73,4.41,4.75,0,*79
1497279922.74,30150,22.69,74052.8,8.75,4.49,4.79,0,*73
1497279923.97,30151,22.75,74058.8,8.75,4.41,4.79,0,*7A
1497279925.17,30152,22.75,74058.5,8.75,4.45,4.81,0,*7A
1497279926.37,30153,22.75,74058.8,8.77,4.57,4.81,0,*7A
1497279927.59,30154,22.75,74062.5,8.75,4.49,4.79,0,*77
1497279928.82,30155,22.69,74058.5,8.75,4.45,4.71,0,*72
1497279930.05,30156,22.69,74062.0,8.75,4.33,4.67,0,*77
1497279931.28,30157,22.75,74064.0,8.75,4.45,4.79,0,*78
1497279932.54,30158,22.75,74066.8,8.77,4.31,4.59,0,*74
1497279933.74,30159,22.69,74058.8,8.77,4.19,4.49,0,*7E
1497279934.95,30160,22.75,74060.5,8.77,4.11,4.45,0,*70
1497279936.16,30161,22.75,74060.8,8.77,4.11,4.45,0,*71
1497279937.37,30162,22.69,74062.3,8.77,4.23,4.57,0,*70
1497279938.57,30163,22.75,74064.5,8.77,4.23,4.49,0,*7E
1497279939.78,30164,22.69,74060.5,8.79,4.49,4.75,0,*74
1497279940.99,30165,22.69,74062.5,8.77,4.11,4.41,0,*71
1497279942.23,30166,22.75,74064.8,8.77,4.01,4.33,0,*76
1497279943.43,30167,22.75,74064.0,8.75,4.11,4.45,0,*75
1497279944.66,30168,22.75,74066.5,8.77,3.97,4.19,0,*78
1497279945.86,30169,22.75,74068.5,8.75,3.63,3.89,0,*7E
1497279947.06,30170,22.75,74068.5,8.77,3.85,4.11,0,*7A
1497279948.26,30171,22.75,74064.3,8.75,3.85,4.11,0,*79
1497279949.46,30172,22.75,74064.8,8.75,3.89,4.11,0,*76
1497279950.68,30173,22.75,74060.5,8.75,3.85,4.01,0,*7A
1497279951.91,30174,22.75,74062.8,8.75,3.89,4.01,0,*71
1497279953.13,30175,22.75,74058.0,8.75,3.85,3.97,0,*74
1497279954.34,30176,22.75,74060.3,8.73,3.75,3.93,0,*7A
1497279955.57,30177,22.75,74060.0,8.71,3.71,3.89,0,*76
1497279956.8,30178,22.75,74056.3,8.71,3.89,4.05,0,*7D
1497279957.98,30179,22.69,74058.3,8.73,3.93,4.07,0,*77
1497279959.21,30180,22.75,74060.0,8.71,3.89,4.05,0,*7A
1497279960.41,30181,22.69,74054.8,8.73,3.93,3.97,0,*7E
1497279961.61,30182,22.69,74052.8,8.73,3.89,4.01,0,*7E
1497279962.79,30183,22.75,74056.3,8.73,3.93,4.11,0,*75
1497279963.99,30184,22.75,74056.0,8.73,3.89,4.01,0,*78
1497279965.19,30185,22.75,74054.0,8.71,3.93,4.11,0,*71
1497279966.36,30186,22.69,74052.0,8.73,4.15,4.27,0,*7C
1497279967.61,30187,22.69,74054.3,8.71,4.01,4.01,0,*7E
1497279968.81,30188,22.75,74054.3,8.71,3.81,3.93,0,*72
1497279970.02,30189,22.75,74054.3,8.71,3.81,3.93,0,*73
1497279971.24,30190,22.75,74054.3,8.71,3.93,4.01,0,*74
1497279972.49,30191,22.75,74054.8,8.71,4.01,4.05,0,*7D
1497279973.72,30192,22.75,74052.0,8.71,4.05,4.23,0,*7E
1497279974.92,30193,22.75,74054.5,8.71,4.23,4.27,0,*7F
1497279976.13,30194,22.75,74054.8,8.71,4.23,4.33,0,*7D
1497279977.33,30195,22.69,74050.0,8.71,4.23,4.41,0,*79
1497279978.54,30196,22.75,74050.8,8.73,4.27,4.31,0,*7B
1497279979.74,30197,22.69,74048.3,8.71,4.23,4.37,0,*7A
1497279980.92,30198,22.69,74050.5,8.73,4.23,4.33,0,*73
1497279982.1,30199,22.69,74048.8,8.73,4.23,4.33,0,*72
1497279983.28,30200,22.69,74054.3,8.73,4.27,4.37,0,*71
1497279984.49,30201,22.75,74054.0,8.71,4.33,4.41,0,*76
1497279985.72,30202,22.69,74054.8,8.71,4.37,4.59,0,*78
1497279986.92,30203,22.69,74054.8,8.73,4.45,4.67,0,*73
1497279988.12,30204,22.69,74058.0,8.73,4.53,4.67,0,*73
1497279989.33,30205,22.75,74058.0,8.73,4.53,4.67,0,*72
1497279990.56,30206,22.75,74058.8,8.77,4.45,4.67,0,*72
1497279991.79,30207,22.75,74058.5,8.75,4.41,4.59,0,*78
1497279993.01,30208,22.75,74058.5,8.75,4.45,4.67,0,*7E
1497279994.24,30209,22.69,74056.5,8.75,4.33,4.59,0,*73
1497279995.47,30210,22.69,74058.5,8.77,4.57,4.79,0,*79
1497279996.67,30211,22.75,74058.3,8.77,4.57,4.81,0,*7F
1497279997.9,30212,22.69,74058.0,8.75,4.57,4.79,0,*79
1497279999.1,30213,22.75,74062.8,8.77,4.49,4.81,0,*72
1497280000.3,30214,22.75,74058.3,8.77,4.57,4.81,0,*7A
1497280001.53,30215,22.69,74058.8,8.77,4.59,4.81,0,*75
1497280002.76,30216,22.69,74058.0,8.77,4.49,4.79,0,*70
1497280004.0,30217,22.69,74058.0,8.77,4.33,4.71,0,*74
1497280005.23,30218,22.75,74062.3,8.77,4.19,4.67,0,*74
1497280006.45,30219,22.69,74056.5,8.79,4.33,4.71,0,*74
1497280007.65,30220,22.69,74058.3,8.79,4.01,4.37,0,*7D
1497280008.86,30221,22.69,74058.8,8.79,4.15,4.63,0,*78
1497280010.04,30222,22.75,74056.8,8.79,4.11,4.49,0,*77
1497280011.23,30223,22.75,74058.8,8.79,3.89,4.33,0,*7D
1497280012.42,30224,22.69,74058.8,8.79,3.89,4.37,0,*7E
1497280013.62,30225,22.69,74060.5,8.79,3.79,4.23,0,*75
1497280014.87,30226,22.69,74062.3,8.77,3.49,4.01,0,*7B
1497280016.11,30227,22.75,74062.0,8.77,3.67,4.11,0,*77
1497280017.33,30228,22.69,74062.0,8.75,3.75,4.19,0,*71
1497280018.54,30229,22.75,74062.5,8.75,3.85,4.33,0,*77
1497280019.77,30230,22.75,74066.3,8.75,3.75,4.33,0,*70
1497280021.01,30231,22.69,74062.3,8.77,3.75,4.23,0,*72
1497280022.2,30232,22.69,74060.0,8.75,3.63,4.11,0,*75
1497280023.46,30233,22.69,74062.8,8.75,3.67,4.31,0,*72
1497280024.7,30234,22.69,74060.5,8.77,3.79,4.33,0,*7A
1497280025.93,30235,22.69,74060.3,8.75,3.85,4.31,0,*78
1497280027.15,30236,22.75,74064.0,8.75,3.67,4.19,0,*7D
1497280028.38,30237,22.69,74064.0,8.75,3.79,4.23,0,*7A
1497280029.61,30238,22.69,74064.5,8.75,3.75,4.23,0,*79
1497280030.83,30239,22.69,74062.3,8.73,3.49,3.97,0,*79
1497280032.03,30240,22.69,74052.8,8.73,3.59,4.05,0,*7A
1497280033.23,30241,22.69,74058.8,8.73,3.55,4.05,0,*77
1497280034.4,30242,22.69,74058.3,8.73,3.63,4.07,0,*73
1497280035.57,30243,22.69,74056.5,8.73,3.63,4.15,0,*71
1497280036.8,30244,22.75,74060.0,8.71,3.55,4.05,0,*70
1497280038.04,30245,22.75,74060.0,8.71,3.53,4.01,0,*73
1497280039.27,30246,22.69,74052.3,8.71,3.67,4.11,0,*76
1497280040.49,30247,22.75,74052.3,8.71,3.59,4.05,0,*7F
1497280041.69,30248,22.69,74050.8,8.71,3.81,4.15,0,*74
1497280042.92,30249,22.69,74050.3,8.71,3.71,4.23,0,*7F
1497280044.15,30250,22.69,74054.8,8.71,3.53,3.93,0,*7B
1497280045.35,30251,22.75,74058.8,8.69,3.19,3.55,0,*77
1497280046.55,30252,22.75,74062.8,8.69,3.15,3.55,0,*78
1497280047.76,30253,22.69,74064.5,8.69,3.29,3.75,0,*74
1497280049.02,30254,22.69,74056.8,8.67,3.37,3.79,0,*7E
1497280050.26,30255,22.69,74058.0,8.67,3.49,3.97,0,*76
1497280051.47,30256,22.69,74056.5,8.69,3.49,3.89,0,*74
1497280052.7,30257,22.75,74058.5,8.67,3.49,3.89,0,*7B
1497280053.95,30258,22.69,74056.0,8.67,3.53,3.97,0,*70
1497280055.18,30259,22.75,74062.5,8.65,3.37,3.75,0,*7D
1497280056.39,30260,22.75,74062.3,8.65,3.25,3.71,0,*70
1497280057.57,30261,22.69,74060.8,8.65,3.25,3.59,0,*7B
1497280058.77,30262,22.75,74062.8,8.65,3.33,3.63,0,*76
1497280060.02,30263,22.75,74062.0,8.63,3.37,3.75,0,*72
1497280061.25,30264,22.69,74060.0,8.59,3.49,3.81,0,*7E
1497280062.45,30265,22.75,74060.3,8.59,3.55,3.89,0,*7A
1497280063.71,30266,22.75,74064.5,8.59,3.45,3.79,0,*77
1497280064.96,30267,22.75,74060.5,8.59,3.41,3.71,0,*7A
1497280066.17,30268,22.69,74060.5,8.57,3.41,3.63,0,*78
1497280067.4,30269,22.69,74058.5,8.59,3.41,3.59,0,*7E
1497280068.65,30270,22.69,74058.0,8.59,3.45,3.67,0,*7F
1497280069.85,30271,22.75,74056.3,8.57,3.41,3.55,0,*75
1497280071.09,30272,22.69,74052.5,8.55,3.25,3.41,0,*73
1497280072.34,30273,22.75,74052.0,8.55,3.37,3.45,0,*75
1497280073.58,30274,22.69,74050.3,8.55,3.25,3.41,0,*75
1497280074.8,30275,22.75,74054.5,8.55,3.45,3.55,0,*77
1497280076.03,30276,22.75,74058.8,8.53,3.37,3.49,0,*7A
1497280077.28,30277,22.69,74058.0,8.55,3.53,3.67,0,*73
1497280078.48,30278,22.69,74052.0,8.53,3.53,3.63,0,*7E
1497280079.74,30279,22.69,74054.3,8.55,3.67,3.71,0,*7D
1497280080.97,30280,22.69,74062.8,8.53,3.71,3.71,0,*7A
1497280082.2,30281,22.75,74066.3,8.53,3.71,3.71,0,*7B
1497280083.38,30282,22.69,74062.3,8.53,3.85,3.85,0,*78
1497280084.59,30283,22.69,74060.5,8.53,4.05,4.07,0,*7B
1497280085.78,30284,22.69,74058.3,8.53,4.07,4.15,0,*7D
1497280087.03,30285,22.69,74060.5,8.55,3.79,3.79,0,*79
1497280088.27,30286,22.69,74058.8,8.53,3.71,3.75,0,*78
1497280089.47,30287,22.75,74062.0,8.53,3.63,3.71,0,*7E
1497280090.68,30288,22.69,74056.8,8.53,3.75,3.85,0,*7D
1497280091.9,30289,22.69,74062.3,8.51,3.85,3.97,0,*72
1497280093.14,30290,22.75,74060.3,8.53,4.05,4.05,0,*7B
1497280094.35,30291,22.69,74060.8,8.53,4.07,4.05,0,*78
1497280095.56,30292,22.69,74064.5,8.51,3.93,3.93,0,*7B
1497280096.74,30293,22.75,74064.5,8.53,4.15,4.15,0,*78
1497280097.97,30294,22.69,74062.8,8.51,4.07,4.05,0,*7F
1497280099.22,30295,22.69,74060.5,8.51,4.05,3.97,0,*70
1497280100.46,30296,22.69,74062.8,8.51,4.07,4.05,0,*7D
1497280101.66,30297,22.69,74060.8,8.51,4.15,4.15,0,*7E
1497280102.84,30298,22.69,74060.0,8.53,4.23,4.23,0,*73
1497280104.02,30299,22.69,74062.0,8.53,4.33,4.27,0,*77
1497280105.19,30300,22.69,74060.8,8.53,4.23,4.19,0,*7A
1497280106.38,30301,22.69,74060.3,8.53,4.33,4.23,0,*73
1497280107.55,30302,22.69,74060.8,8.53,4.23,4.19,0,*78
1497280108.75,30303,22.75,74062.5,8.55,4.33,4.23,0,*77
1497280109.96,30304,22.69,74066.3,8.55,4.33,4.33,0,*71
1497280111.14,30305,22.69,74064.3,8.53,4.23,4.19,0,*7F
1497280112.32,30306,22.69,74066.3,8.53,4.19,4.15,0,*79
1497280113.51,30307,22.69,74062.3,8.55,4.19,4.11,0,*7A
1497280114.71,30308,22.69,74064.0,8.55,4.23,4.19,0,*74
1497280115.92,30309,22.69,74060.8,8.55,4.33,4.33,0,*7C
1497280117.12,30310,22.69,74062.0,8.55,4.23,4.23,0,*74
1497280118.31,30311,22.69,74060.8,8.55,4.23,4.27,0,*71
1497280119.49,30312,22.69,74062.0,8.57,4.19,4.11,0,*7C
1497280120.69,30313,22.69,74060.5,8.55,4.33,4.27,0,*72
1497280121.89,30314,22.69,74060.0,8.55,4.19,4.23,0,*79
1497280123.09,30315,22.69,74064.5,8.59,4.27,4.23,0,*79
1497280124.28,30316,22.69,74064.0,8.57,4.27,4.33,0,*75
1497280125.45,30317,22.69,74064.0,8.57,4.23,4.23,0,*71
1497280126.63,30318,22.69,74062.8,8.57,4.23,4.27,0,*7A
1497280127.8,30319,22.69,74064.5,8.57,4.23,4.19,0,*76
1497280128.97,30320,22.69,74060.3,8.57,4.23,4.27,0,*71
1497280130.16,30321,22.69,74060.8,8.57,4.33,4.37,0,*70